Regional Weather Roundup
Issued by NWS

Home | Current Version | Previous Version | Text Only | Print | Product List | Glossary Off
Versions: 1 2 3 4 5 6 7 8 9 10 11 12 13 14 15 16 17 18 19 20 21 22 23 24 25 26 27 28 29 30 31 32 33 34 35 36 37 38 39 40 41 42 43 44 45 46 47 48 49 50

000
ASUS43 KDTX 201410
RWRMI
MICHIGAN HOURLY REGIONAL WEATHER ROUNDUP
NATIONAL WEATHER SERVICE DETROIT/PONTIAC MI
ISSUED BY NATIONAL WEATHER SERVICE GRAND RAPIDS MI
900 AM EST MON FEB 20 2017

NOTE: "FAIR" INDICATES FEW OR NO CLOUDS BELOW 12,000 FEET WITH NO
SIGNIFICANT WEATHER AND/OR OBSTRUCTION TO VISIBILITY.

MIZ047>049-052>055-059>063-066>070-074>076-081>083-201500-
SOUTHEAST LOWER MICHIGAN

CITY           SKY/WX    TMP DP  RH WIND       PRES   REMARKS
ADRIAN         CLOUDY    40  33  76 E7        30.28R
ALMA           CLOUDY    37  32  81 E7        30.29R WCI  32
ANN ARBOR      CLOUDY    40  32  73 NE7       30.29R
BAD AXE        MOSUNNY   36  33  88 E5        30.33R WCI  32
DETROIT CITY   MOSUNNY   38  33  82 E6        30.32R WCI  33
DETROIT        CLOUDY    40  32  73 NE7       30.31R
FLINT          MOSUNNY   35  30  82 E6        30.31R WCI  30
GROSSE ILE     MOSUNNY   37  32  83 NE9       30.29R WCI  30
HILLSDALE      CLOUDY    41  34  75 SE6       30.24R
HOWELL         SUNNY     38  31  74 E5        30.28R WCI  35

CITY           SKY/WX    TMP DP  RH WIND       PRES   REMARKS
JACKSON        MOSUNNY   42  32  67 SE8       30.26R
LANSING        MOSUNNY   41  31  67 E7        30.27R
MASON          CLOUDY    41  33  74 CALM      30.27R
MONROE         CLOUDY    40  34  79 E7        30.29R
MT. CLEMENS    MOSUNNY   35  34  95 NE5       30.31R WCI  31
PONTIAC        MOSUNNY   38  31  76 E6        30.29R WCI  33
PORT HOPE        N/A     34  32  92 SE8       30.32R WCI  27
PORT HURON     MOSUNNY   36  34  93 CALM      30.34R
TRI CITIES     CLOUDY    35  32  88 E6        30.32R WCI  30
YPSILANTI      CLOUDY    40  33  76 NE7       30.30R
$$
MIZ043>046-050>051-056>058-064>065-071>073-077>080-201500-
SOUTHWEST LOWER MICHIGAN

CITY           SKY/WX    TMP DP  RH WIND       PRES   REMARKS
BATTLE CREEK   CLOUDY    42  34  73 SE8       30.23R
BENTON HARBOR  CLOUDY    48  32  53 SE9       30.19R
BIG RAPIDS     MOSUNNY   36  29  76 CALM      30.24S
COLDWATER      CLOUDY    43  36  76 SE8       30.23S
HOLLAND        CLOUDY    40  32  73 E8        30.20R WCI  34
GRAND RAPIDS   CLOUDY    38  32  79 E8        30.23R WCI  32
KALAMAZOO      MOSUNNY   41  33  73 CALM      30.23R
MARSHALL       CLOUDY    41  35  77 E6        30.23S
MOUNT PLEASANT MOSUNNY   34  30  85 E7        30.28S WCI  28
MUSKEGON       CLOUDY    40  32  73 E8        30.21R WCI  34
STURGIS        MOSUNNY   42  33  70 SE8       30.21S
$$
MIZ016>042-201500-
NORTHERN LOWER MICHIGAN

CITY           SKY/WX    TMP DP  RH WIND       PRES   REMARKS
ALPENA         CLOUDY    35  32  88 SE9       30.36R WCI  28
BEAVER ISLAND  CLOUDY    35  32  89 E12       30.23F WCI  27
BELLAIRE       MOSUNNY   34  31  89 CALM      30.26F
CADILLAC       MOSUNNY   36  29  76 E7        30.23S WCI  30
CHARLEVOIX     MOSUNNY   35  29  80 E9        30.27F WCI  28
GAYLORD        CLOUDY    33  27  78 SE9       30.27R WCI  25
HOUGHTON LAKE  CLOUDY    32  29  88 E6        30.29R WCI  26
MANISTEE       PTSUNNY   38  31  76 E9        30.20S WCI  31
OSCODA         CLOUDY    37  32  83 E7        30.34R WCI  31
PELLSTON       MOSUNNY   31  27  85 SE3       30.30R
TRAVERSE CITY  CLOUDY    38  30  73 E3        30.23F
LUDINGTON      MOSUNNY   40  32  72 SE8       30.20R WCI  35
$$
MIZ007>008-015-201500-
EASTERN UPPER MICHIGAN

CITY           SKY/WX    TMP DP  RH WIND       PRES   REMARKS
KINROSS        MOSUNNY   31  27  85 E15       30.30F WCI  20
MACKINAC ISLAN MOSUNNY   33  31  91 SE13G22   30.29F WCI  24
NEWBERRY       MOSUNNY   32  30  91 SE13      30.25F WCI  22
S. S. MARIE    MOSUNNY   32  24  72 E8        30.32S WCI  25
$$
MIZ004>006-011>014-085-201500-
CENTRAL UPPER MICHIGAN

CITY           SKY/WX    TMP DP  RH WIND       PRES   REMARKS
MANISTIQUE     CLOUDY    33  32  96 E12       30.22F WCI  24
ESCANABA       CLOUDY    36  32  85 E13       30.20S WCI  27
MENOMINEE      CLOUDY    37  32  82 E6        30.18R WCI  32
SAWYER-GWINN   SUNNY     34  28  80 S15       30.16F WCI  24
$$
MIZ001>003-009>011-084-201500-
WESTERN UPPER MICHIGAN

CITY           SKY/WX    TMP DP  RH WIND       PRES   REMARKS
IRON MOUNTAIN  MOSUNNY   34  28  79 SE7       30.14R WCI  28
HOUGHTON       CLOUDY    35  29  78 E12       30.07S WCI  27
COPPER HARBOR    N/A     36  30  79 SW21G39   30.08F WCI  25
IRONWOOD       CLOUDY    44  32  62 SE21G26   29.96F
$$

ABBREVIATIONS USED IN REMARKS
   TC - TEMPERATURE IN CELSIUS
  WCI - WIND CHILL INDEX
   HX - HEAT INDEX
  VSB - VISIBILITY




USA.gov is the U.S. government's official web portal to all federal, state and local government web resources and services.